timestamp,wind_dir_avg,wind_spd_max_dir,wind_spd_avg,wind_spd_gust,battery_voltage,lat,long
2018-04-15 00:00:00+00:00,299.0,310.0,15.78,19.84,,47.59359,-54.27349
2018-04-15 00:10:00+00:00,308.0,305.0,16.97,20.11,,47.59359,-54.27349
2018-04-15 00:20:00+00:00,303.0,303.0,17.03,21.38,,47.59359,-54.27349
2018-04-15 00:30:00+00:00,305.0,309.0,17.85,21.51,,47.59359,-54.27349
2018-04-15 00:40:00+00:00,307.0,308.0,16.68,21.6,,47.59359,-54.27349
2018-04-15 00:50:00+00:00,306.0,300.0,16.92,20.46,,47.59359,-54.27349
2018-04-15 01:00:00+00:00,303.0,305.0,17.63,20.71,,47.59359,-54.27349
2018-04-15 01:10:00+00:00,298.0,304.0,19.56,21.67,,47.59359,-54.27349
2018-04-15 01:20:00+00:00,303.0,299.0,15.31,19.22,,47.59359,-54.27349
2018-04-15 01:30:00+00:00,305.0,304.0,18.79,21.2,,47.59359,-54.27349
2018-04-15 01:40:00+00:00,310.0,314.0,17.44,20.94,,47.59359,-54.27349
2018-04-15 01:50:00+00:00,310.0,319.0,17.2,19.82,,47.59359,-54.27349
2018-04-15 02:00:00+00:00,309.0,305.0,16.25,19.04,,47.59359,-54.27349
2018-04-15 02:10:00+00:00,312.0,312.0,16.29,20.78,,47.59359,-54.27349
2018-04-15 02:20:00+00:00,314.0,317.0,15.74,18.1,,47.59359,-54.27349
2018-04-15 02:30:00+00:00,313.0,314.0,17.74,20.47,,47.59359,-54.27349
2018-04-15 02:40:00+00:00,322.0,327.0,17.25,21.76,,47.59359,-54.27349
2018-04-15 02:50:00+00:00,320.0,315.0,13.94,16.8,,47.59359,-54.27349
2018-04-15 03:00:00+00:00,319.0,316.0,18.18,21.08,,47.59359,-54.27349
2018-04-15 03:10:00+00:00,318.0,310.0,14.19,18.54,,47.59359,-54.27349
2018-04-15 03:20:00+00:00,319.0,320.0,14.6,19.1,,47.59359,-54.27349
2018-04-15 03:30:00+00:00,316.0,315.0,14.31,17.2,,47.59359,-54.27349
2018-04-15 03:40:00+00:00,316.0,313.0,15.48,18.64,,47.59359,-54.27349
2018-04-15 03:50:00+00:00,314.0,313.0,17.31,21.64,,47.59359,-54.27349
2018-04-15 04:00:00+00:00,312.0,310.0,16.9,19.7,,47.59359,-54.27349
2018-04-15 04:10:00+00:00,315.0,317.0,15.66,19.42,,47.59359,-54.27349
2018-04-15 04:20:00+00:00,317.0,310.0,17.0,20.72,,47.59359,-54.27349
2018-04-15 04:30:00+00:00,318.0,315.0,14.91,17.56,,47.59359,-54.27349
2018-04-15 04:40:00+00:00,316.0,321.0,15.03,17.91,,47.59359,-54.27349
2018-04-15 04:50:00+00:00,322.0,319.0,12.95,15.95,,47.59359,-54.27349
2018-04-15 05:00:00+00:00,311.0,316.0,13.94,17.11,,47.59359,-54.27349
2018-04-15 05:10:00+00:00,309.0,307.0,12.47,14.24,,47.59359,-54.27349
2018-04-15 05:20:00+00:00,307.0,308.0,16.14,20.33,,47.59359,-54.27349
2018-04-15 05:30:00+00:00,313.0,319.0,12.01,15.01,,47.59359,-54.27349
2018-04-15 05:40:00+00:00,317.0,323.0,15.56,18.62,,47.59359,-54.27349
2018-04-15 05:50:00+00:00,315.0,309.0,15.28,17.96,,47.59359,-54.27349
2018-04-15 06:00:00+00:00,317.0,317.0,16.13,19.66,,47.59359,-54.27349
2018-04-15 06:10:00+00:00,312.0,309.0,17.61,22.97,,47.59359,-54.27349
2018-04-15 06:20:00+00:00,311.0,318.0,18.12,22.14,,47.59359,-54.27349
2018-04-15 06:30:00+00:00,314.0,310.0,18.33,22.78,,47.59359,-54.27349
2018-04-15 06:40:00+00:00,317.0,326.0,19.15,22.52,,47.59359,-54.27349
2018-04-15 06:50:00+00:00,312.0,309.0,18.33,22.65,,47.59359,-54.27349
2018-04-15 07:00:00+00:00,315.0,310.0,19.45,22.2,,47.59359,-54.27349
2018-04-15 07:10:00+00:00,319.0,319.0,19.3,23.25,,47.59359,-54.27349
2018-04-15 07:20:00+00:00,317.0,318.0,18.59,24.83,,47.59359,-54.27349
2018-04-15 07:30:00+00:00,319.0,314.0,17.1,20.93,,47.59359,-54.27349
2018-04-15 07:40:00+00:00,319.0,315.0,18.98,23.49,,47.59359,-54.27349
2018-04-15 07:50:00+00:00,321.0,325.0,17.94,21.61,,47.59359,-54.27349
2018-04-15 08:00:00+00:00,321.0,312.0,17.13,20.41,,47.59359,-54.27349
2018-04-15 08:10:00+00:00,320.0,318.0,16.22,19.8,,47.59359,-54.27349
2018-04-15 08:20:00+00:00,318.0,320.0,18.86,22.93,,47.59359,-54.27349
2018-04-15 08:30:00+00:00,320.0,314.0,17.3,21.45,,47.59359,-54.27349
2018-04-15 08:40:00+00:00,323.0,326.0,16.79,18.95,,47.59359,-54.27349
2018-04-15 08:50:00+00:00,325.0,319.0,15.28,18.3,,47.59359,-54.27349
2018-04-15 09:00:00+00:00,331.0,333.0,13.49,16.34,,47.59359,-54.27349
2018-04-15 09:10:00+00:00,328.0,334.0,14.09,17.67,,47.59359,-54.27349
2018-04-15 09:20:00+00:00,321.0,308.0,14.02,18.23,,47.59359,-54.27349
2018-04-15 09:30:00+00:00,325.0,330.0,16.11,20.66,,47.59359,-54.27349
2018-04-15 09:40:00+00:00,319.0,314.0,15.96,19.33,,47.59359,-54.27349
2018-04-15 09:50:00+00:00,324.0,314.0,13.08,18.12,,47.59359,-54.27349
2018-04-15 10:00:00+00:00,324.0,341.0,10.63,14.62,,47.59359,-54.27349
2018-04-15 10:10:00+00:00,324.0,340.0,7.24,11.21,,47.59359,-54.27349
2018-04-15 10:20:00+00:00,342.0,338.0,7.45,10.99,,47.59359,-54.27349
2018-04-15 10:30:00+00:00,130.0,134.0,0.79,2.09,,47.59359,-54.27349
2018-04-15 10:40:00+00:00,254.0,244.0,2.14,3.13,,47.59359,-54.27349
2018-04-15 10:50:00+00:00,344.0,348.0,3.53,4.52,,47.59359,-54.27349
2018-04-15 11:00:00+00:00,354.0,345.0,6.28,8.75,,47.59359,-54.27349
2018-04-15 11:10:00+00:00,284.0,228.0,1.74,6.87,,47.59359,-54.27349
2018-04-15 11:20:00+00:00,318.0,311.0,7.84,10.25,,47.59359,-54.27349
2018-04-15 11:30:00+00:00,309.0,306.0,6.74,11.06,,47.59359,-54.27349
2018-04-15 11:40:00+00:00,320.0,316.0,9.35,11.85,,47.59359,-54.27349
2018-04-15 11:50:00+00:00,326.0,328.0,11.16,13.64,,47.59359,-54.27349
2018-04-15 12:00:00+00:00,328.0,335.0,14.38,17.29,,47.59359,-54.27349
2018-04-15 12:10:00+00:00,327.0,333.0,12.39,14.98,,47.59359,-54.27349
2018-04-15 12:20:00+00:00,329.0,321.0,12.08,13.42,,47.59359,-54.27349
2018-04-15 12:30:00+00:00,325.0,329.0,13.38,15.75,,47.59359,-54.27349
2018-04-15 12:40:00+00:00,320.0,321.0,12.05,13.41,,47.59359,-54.27349
2018-04-15 12:50:00+00:00,336.0,326.0,12.45,14.6,,47.59359,-54.27349
2018-04-15 13:00:00+00:00,324.0,326.0,11.67,14.31,,47.59359,-54.27349
2018-04-15 13:10:00+00:00,325.0,324.0,11.22,12.86,,47.59359,-54.27349
2018-04-15 13:20:00+00:00,324.0,332.0,12.29,13.78,,47.59359,-54.27349
2018-04-15 13:30:00+00:00,327.0,327.0,12.69,14.74,,47.59359,-54.27349
2018-04-15 13:40:00+00:00,322.0,326.0,12.32,14.11,,47.59359,-54.27349
2018-04-15 13:50:00+00:00,337.0,337.0,10.61,12.58,,47.59359,-54.27349
2018-04-15 14:00:00+00:00,337.0,343.0,11.76,13.28,,47.59359,-54.27349
2018-04-15 14:10:00+00:00,325.0,330.0,13.29,15.63,,47.59359,-54.27349
2018-04-15 14:20:00+00:00,338.0,340.0,13.25,14.94,,47.59359,-54.27349
2018-04-15 14:30:00+00:00,334.0,330.0,14.3,16.03,,47.59359,-54.27349
2018-04-15 14:40:00+00:00,340.0,346.0,12.86,14.35,,47.59359,-54.27349
2018-04-15 14:50:00+00:00,330.0,326.0,13.44,15.53,,47.59359,-54.27349
2018-04-15 15:00:00+00:00,336.0,334.0,11.84,13.97,,47.59359,-54.27349
2018-04-15 15:10:00+00:00,337.0,337.0,12.31,13.71,,47.59359,-54.27349
2018-04-15 15:20:00+00:00,324.0,324.0,11.71,15.34,,47.59359,-54.27349
2018-04-15 15:30:00+00:00,338.0,333.0,13.6,17.51,,47.59359,-54.27349
2018-04-15 15:40:00+00:00,343.0,340.0,12.93,14.59,,47.59359,-54.27349
2018-04-15 15:50:00+00:00,348.0,340.0,10.61,14.94,,47.59359,-54.27349
2018-04-15 16:00:00+00:00,343.0,339.0,10.48,11.68,,47.59359,-54.27349
2018-04-15 16:10:00+00:00,356.0,358.0,11.38,13.87,,47.59359,-54.27349
2018-04-15 16:20:00+00:00,348.0,338.0,12.68,14.99,,47.59359,-54.27349
2018-04-15 16:30:00+00:00,342.0,343.0,12.44,13.61,,47.59359,-54.27349
2018-04-15 16:40:00+00:00,346.0,343.0,12.23,14.09,,47.59359,-54.27349
2018-04-15 16:50:00+00:00,347.0,339.0,11.09,13.16,,47.59359,-54.27349
2018-04-15 17:00:00+00:00,5.0,3.0,13.02,14.39,,47.59359,-54.27349
2018-04-15 17:10:00+00:00,3.0,356.0,11.14,12.81,,47.59359,-54.27349
2018-04-15 17:20:00+00:00,354.0,357.0,13.3,15.76,,47.59359,-54.27349
2018-04-15 17:30:00+00:00,4.0,8.0,11.28,13.76,,47.59359,-54.27349
2018-04-15 17:40:00+00:00,1.0,356.0,11.61,12.71,,47.59359,-54.27349
2018-04-15 17:50:00+00:00,359.0,1.0,13.54,17.59,,47.59359,-54.27349
2018-04-15 18:00:00+00:00,15.0,16.0,13.32,15.86,,47.59359,-54.27349
2018-04-15 18:10:00+00:00,6.0,10.0,13.41,14.97,,47.59359,-54.27349
2018-04-15 18:20:00+00:00,9.0,4.0,12.7,15.7,,47.59359,-54.27349
2018-04-15 18:30:00+00:00,15.0,11.0,13.52,15.89,,47.59359,-54.27349
2018-04-15 18:40:00+00:00,14.0,16.0,12.18,14.31,,47.59359,-54.27349
2018-04-15 18:50:00+00:00,16.0,13.0,13.25,15.76,,47.59359,-54.27349
2018-04-15 19:00:00+00:00,9.0,6.0,10.99,13.05,,47.59359,-54.27349
2018-04-15 19:10:00+00:00,359.0,356.0,15.82,19.03,,47.59359,-54.27349
2018-04-15 19:20:00+00:00,14.0,16.0,13.91,16.12,,47.59359,-54.27349
2018-04-15 19:30:00+00:00,6.0,8.0,11.63,14.7,,47.59359,-54.27349
2018-04-15 19:40:00+00:00,11.0,6.0,11.98,15.78,,47.59359,-54.27349
2018-04-15 19:50:00+00:00,15.0,13.0,12.53,15.37,,47.59359,-54.27349
2018-04-15 20:00:00+00:00,5.0,4.0,14.03,16.29,,47.59359,-54.27349
2018-04-15 20:10:00+00:00,13.0,19.0,10.98,12.66,,47.59359,-54.27349
2018-04-15 20:20:00+00:00,9.0,13.0,13.36,15.09,,47.59359,-54.27349
2018-04-15 20:30:00+00:00,7.0,9.0,13.43,14.75,,47.59359,-54.27349
2018-04-15 20:40:00+00:00,13.0,20.0,11.53,12.98,,47.59359,-54.27349
2018-04-15 20:50:00+00:00,9.0,12.0,12.95,16.19,,47.59359,-54.27349
2018-04-15 21:00:00+00:00,7.0,4.0,14.24,16.21,,47.59359,-54.27349
2018-04-15 21:10:00+00:00,4.0,0.0,11.39,13.7,,47.59359,-54.27349
2018-04-15 21:20:00+00:00,9.0,2.0,13.47,15.38,,47.59359,-54.27349
2018-04-15 21:30:00+00:00,4.0,6.0,13.23,15.24,,47.59359,-54.27349
2018-04-15 21:40:00+00:00,9.0,6.0,11.16,12.42,,47.59359,-54.27349
2018-04-15 21:50:00+00:00,19.0,19.0,11.43,13.26,,47.59359,-54.27349
2018-04-15 22:00:00+00:00,9.0,11.0,12.59,14.63,,47.59359,-54.27349
2018-04-15 22:10:00+00:00,16.0,17.0,12.98,15.06,,47.59359,-54.27349
2018-04-15 22:20:00+00:00,12.0,9.0,11.24,13.3,,47.59359,-54.27349
2018-04-15 22:30:00+00:00,12.0,11.0,10.86,12.67,,47.59359,-54.27349
2018-04-15 22:40:00+00:00,12.0,11.0,10.55,11.85,,47.59359,-54.27349
2018-04-15 22:50:00+00:00,17.0,16.0,11.83,14.09,,47.59359,-54.27349
2018-04-15 23:00:00+00:00,18.0,16.0,12.16,13.87,,47.59359,-54.27349
2018-04-15 23:10:00+00:00,23.0,27.0,11.85,14.28,,47.59359,-54.27349
2018-04-15 23:20:00+00:00,16.0,12.0,12.37,14.61,,47.59359,-54.27349
2018-04-15 23:30:00+00:00,2.0,0.0,11.81,13.52,,47.59359,-54.27349
2018-04-15 23:40:00+00:00,12.0,17.0,9.15,11.2,,47.59359,-54.27349
2018-04-15 23:50:00+00:00,9.0,15.0,10.69,12.14,,47.59359,-54.27349
